When you browse on this site, cookies collect data to enhance your experience and personalize the content and advertising you see.
Visit our Privacy Policy to learn more. By continuing to use the site, you agree to this use of cookies and data.
  • In United Kingdom
  • List of Countries
  • For 7 days
  • Water Temperature
  • Weather Map
  • Weather Widgets
  • user-avatar
    Login

    Hourly Weather Pivni

    Today, 18 January, Saturday

    Time Temperature Precipitation Wind Pressure Humidity
    00:00 -1°C° 0 mm 3 mps 766 mmHg 86%
    01:00 -1°C° 0 mm 2 mps 766 mmHg 85%
    02:00 +2°C° 0 mm 1 mps 767 mmHg 83%
    03:00 +2°C° 0 mm 1 mps 766 mmHg 82%
    04:00 +1°C° 0 mm 1 mps 766 mmHg 81%
    05:00 +1°C° 0 mm 1 mps 766 mmHg 80%
    06:00 +1°C° 0 mm 1 mps 766 mmHg 81%
    07:00 +1°C° 0 mm 1 mps 766 mmHg 81%
    08:00 -1°C° 0 mm 2 mps 767 mmHg 85%
    09:00 +1°C° 0 mm 2 mps 766 mmHg 80%
    10:00 +1°C° 0 mm 2 mps 766 mmHg 76%
    11:00 +2°C° 0 mm 2 mps 766 mmHg 71%
    12:00 +3°C° 0 mm 2 mps 766 mmHg 68%
    13:00 +3°C° 0 mm 2 mps 765 mmHg 65%
    14:00 +5°C° 0 mm 1 mps 765 mmHg 62%
    15:00 +4°C° 0 mm 1 mps 765 mmHg 66%
    16:00 +4°C° 0 mm 1 mps 764 mmHg 70%
    17:00 +2°C° 0 mm 0 mps 764 mmHg 73%
    18:00 +2°C° 0 mm 1 mps 764 mmHg 75%
    19:00 +2°C° 0 mm 1 mps 764 mmHg 76%
    20:00 +2°C° 0 mm 1 mps 764 mmHg 78%
    21:00 -1°C° 0 mm 2 mps 764 mmHg 79%
    22:00 -1°C° 0 mm 2 mps 764 mmHg 81%
    23:00 -1°C° 0 mm 2 mps 764 mmHg 82%

    Tomorrow, 19 January, Sunday

    Time Temperature Precipitation Wind Pressure Humidity
    00:00 -1°C° 0 mm 2 mps 764 mmHg 83%
    01:00 -1°C° 0 mm 2 mps 764 mmHg 85%
    02:00 -2°C° 0 mm 2 mps 764 mmHg 86%
    03:00 -2°C° 0 mm 2 mps 764 mmHg 88%
    04:00 -2°C° 0 mm 2 mps 764 mmHg 90%
    05:00 -2°C° 0 mm 2 mps 764 mmHg 93%
    06:00 -2°C° 0 mm 2 mps 764 mmHg 93%
    07:00 -2°C° 0 mm 3 mps 764 mmHg 93%
    08:00 -2°C° 0 mm 3 mps 764 mmHg 93%
    09:00 -2°C° 0 mm 3 mps 765 mmHg 88%
    10:00 -1°C° 0 mm 3 mps 765 mmHg 84%
    11:00 -1°C° 0 mm 3 mps 765 mmHg 80%
    12:00 -1°C° 0 mm 3 mps 765 mmHg 78%
    13:00 -1°C° 0 mm 3 mps 765 mmHg 76%
    14:00 0°C° 0 mm 3 mps 765 mmHg 75%
    15:00 -1°C° 0 mm 3 mps 765 mmHg 75%
    16:00 -1°C° 0 mm 2 mps 765 mmHg 75%
    17:00 -1°C° 0 mm 2 mps 765 mmHg 76%
    18:00 -2°C° 0 mm 2 mps 766 mmHg 78%
    19:00 -2°C° 0 mm 2 mps 766 mmHg 80%
    20:00 -3°C° 0 mm 2 mps 766 mmHg 82%
    21:00 -3°C° 0 mm 2 mps 767 mmHg 82%
    22:00 -3°C° 0 mm 2 mps 767 mmHg 83%
    23:00 -3°C° 0 mm 2 mps 767 mmHg 84%

    Day after tomorrow, 20 January, Monday

    Time Temperature Precipitation Wind Pressure Humidity
    00:00 -3°C° 0 mm 2 mps 768 mmHg 84%
    01:00 -3°C° 0 mm 2 mps 768 mmHg 85%
    02:00 -3°C° 0 mm 2 mps 768 mmHg 85%
    03:00 -3°C° 0 mm 2 mps 768 mmHg 86%
    04:00 -3°C° 0 mm 2 mps 768 mmHg 86%
    05:00 -4°C° 0 mm 3 mps 768 mmHg 87%
    06:00 -3°C° 0 mm 2 mps 769 mmHg 87%
    07:00 -3°C° 0 mm 2 mps 769 mmHg 87%
    08:00 -3°C° 0 mm 2 mps 769 mmHg 88%
    09:00 -2°C° 0 mm 2 mps 769 mmHg 81%
    10:00 -1°C° 0 mm 3 mps 770 mmHg 75%
    11:00 +1°C° 0 mm 3 mps 770 mmHg 68%
    12:00 +1°C° 0 mm 3 mps 770 mmHg 66%
    13:00 +2°C° 0 mm 3 mps 770 mmHg 65%
    14:00 +2°C° 0 mm 3 mps 770 mmHg 63%
    15:00 +1°C° 0 mm 3 mps 770 mmHg 68%
    16:00 0°C° 0 mm 3 mps 770 mmHg 73%
    17:00 -1°C° 0 mm 3 mps 770 mmHg 78%
    18:00 -1°C° 0 mm 3 mps 770 mmHg 80%
    19:00 -2°C° 0 mm 4 mps 770 mmHg 83%
    20:00 -3°C° 0 mm 4 mps 770 mmHg 85%
    21:00 -3°C° 0 mm 4 mps 770 mmHg 87%
    22:00 -3°C° 0 mm 4 mps 770 mmHg 89%
    23:00 -3°C° 0 mm 4 mps 770 mmHg 91%

    21 January, Tuesday

    Time Temperature Precipitation Wind Pressure Humidity
    00:00 -3°C° 0 mm 4 mps 770 mmHg 92%
    01:00 -3°C° 0 mm 4 mps 770 mmHg 92%
    02:00 -3°C° 0 mm 4 mps 770 mmHg 92%
    03:00 -3°C° 0 mm 4 mps 770 mmHg 92%
    04:00 -4°C° 0 mm 4 mps 770 mmHg 91%
    05:00 -4°C° 0 mm 4 mps 770 mmHg 91%
    06:00 -4°C° 0 mm 4 mps 769 mmHg 91%
    07:00 -3°C° 0 mm 4 mps 769 mmHg 90%
    08:00 -3°C° 0 mm 4 mps 769 mmHg 89%
    09:00 -2°C° 0 mm 4 mps 769 mmHg 82%
    10:00 -1°C° 0 mm 5 mps 769 mmHg 75%
    11:00 +1°C° 0 mm 5 mps 768 mmHg 68%
    12:00 +2°C° 0 mm 5 mps 768 mmHg 64%
    13:00 +2°C° 0 mm 6 mps 767 mmHg 60%
    14:00 +3°C° 0 mm 6 mps 766 mmHg 56%
    15:00 +2°C° 0 mm 6 mps 766 mmHg 60%
    16:00 +1°C° 0 mm 5 mps 765 mmHg 64%
    17:00 0°C° 0 mm 5 mps 765 mmHg 67%
    18:00 0°C° 0 mm 5 mps 765 mmHg 69%
    19:00 -1°C° 0 mm 5 mps 764 mmHg 71%
    20:00 -1°C° 0 mm 5 mps 764 mmHg 72%
    21:00 -1°C° 0 mm 5 mps 764 mmHg 73%
    22:00 -1°C° 0 mm 5 mps 763 mmHg 73%
    23:00 -1°C° 0 mm 5 mps 763 mmHg 73%

    22 January, Wednesday

    Time Temperature Precipitation Wind Pressure Humidity
    00:00 -2°C° 0 mm 5 mps 762 mmHg 73%
    01:00 -2°C° 0 mm 5 mps 762 mmHg 73%
    02:00 -2°C° 0 mm 5 mps 761 mmHg 73%
    03:00 -2°C° 0 mm 5 mps 761 mmHg 72%
    04:00 -2°C° 0 mm 5 mps 761 mmHg 71%
    05:00 -2°C° 0 mm 5 mps 760 mmHg 71%
    06:00 -2°C° 0 mm 5 mps 760 mmHg 70%
    07:00 -2°C° 0 mm 5 mps 760 mmHg 70%
    08:00 -2°C° 0 mm 5 mps 760 mmHg 70%
    09:00 -1°C° 0 mm 5 mps 759 mmHg 68%
    10:00 +1°C° 0 mm 5 mps 759 mmHg 66%
    11:00 +2°C° 0 mm 6 mps 759 mmHg 64%
    12:00 +2°C° 0 mm 6 mps 759 mmHg 66%
    13:00 +2°C° 0 mm 6 mps 758 mmHg 67%
    14:00 +2°C° 0 mm 6 mps 758 mmHg 69%
    15:00 +2°C° 0 mm 6 mps 758 mmHg 72%
    16:00 +1°C° 0 mm 5 mps 757 mmHg 74%
    17:00 +1°C° 0 mm 5 mps 757 mmHg 77%
    18:00 0°C° 0 mm 5 mps 757 mmHg 79%
    19:00 0°C° 0 mm 4 mps 756 mmHg 81%
    20:00 0°C° 0 mm 4 mps 756 mmHg 83%
    21:00 0°C° 0 mm 5 mps 755 mmHg 87%
    22:00 -1°C° 0 mm 5 mps 755 mmHg 92%
    23:00 -2°C° 0 mm 6 mps 755 mmHg 96%

    23 January, Thursday

    Time Temperature Precipitation Wind Pressure Humidity
    00:00 -2°C° 0.2 mm 6 mps 754 mmHg 96%
    01:00 -2°C° 0.2 mm 6 mps 754 mmHg 96%
    02:00 -2°C° 0.2 mm 7 mps 753 mmHg 96%
    03:00 -2°C° 0.2 mm 6 mps 753 mmHg 96%
    04:00 -2°C° 0.2 mm 6 mps 753 mmHg 96%
    05:00 -3°C° 0.2 mm 6 mps 753 mmHg 96%
    06:00 -2°C° 0.3 mm 7 mps 753 mmHg 90%
    07:00 -2°C° 0.3 mm 8 mps 754 mmHg 85%
    08:00 -3°C° 0.3 mm 9 mps 754 mmHg 80%
    09:00 -3°C° 0 mm 9 mps 755 mmHg 78%
    10:00 -4°C° 0 mm 9 mps 756 mmHg 75%
    11:00 -4°C° 0 mm 9 mps 757 mmHg 73%
    12:00 -3°C° 0 mm 9 mps 757 mmHg 71%
    13:00 -2°C° 0 mm 8 mps 758 mmHg 69%
    14:00 -2°C° 0 mm 8 mps 758 mmHg 67%
    15:00 -2°C° 0 mm 7 mps 759 mmHg 70%
    16:00 -3°C° 0 mm 7 mps 759 mmHg 73%
    17:00 -3°C° 0 mm 6 mps 760 mmHg 76%
    18:00 -4°C° 0 mm 6 mps 760 mmHg 77%
    19:00 -4°C° 0 mm 6 mps 761 mmHg 78%
    20:00 -4°C° 0 mm 6 mps 761 mmHg 79%
    21:00 -5°C° 0 mm 6 mps 762 mmHg 80%
    22:00 -5°C° 0 mm 6 mps 762 mmHg 81%
    23:00 -5°C° 0 mm 6 mps 763 mmHg 82%
    Show more